Weather History for KLHB - May, 2013

Change the Weather History Date:

Tuesday, May 7, 2013

  Actual Average (KCLL) Record (KCLL)
Temperature  
Mean Temperature 66 °F 74 °F  
Max Temperature 85 °F 84 °F 99 °F (1998)
Min Temperature 48 °F 64 °F 44 °F (1917)
Degree Days  
Heating Degree Days 0 0  
Month to date heating degree days 0  
Since 1 July heating degree days 1606  
Cooling Degree Days 2 9  
Month to date cooling degree days 59  
Year to date cooling degree days 298  
Growing Degree Days 16 (Base 50)    
Moisture  
Dew Point 50 °F    
Average Humidity 59    
Maximum Humidity 94    
Minimum Humidity 26    
Precipitation  
Precipitation 0.00 in 0.15 in 2.00 in (1919)
Month to date precipitation 0.94  
Year to date precipitation 12.86  
Sea Level Pressure  
Sea Level Pressure 30.02 in    
Wind  
Wind Speed 2 mph (SE)    
Max Wind Speed 9 mph    
Max Gust Speed -    
Visibility 10 miles    
Events      
T = Trace of Precipitation, MM = Missing Value Source: NWS Daily Summary

Daily Weather History Graph

Daily Weather History Graph

Search for Another Location

Airport or City:

Trip Planner

Search our weather history database for the weather conditions in past years. The results will help you decide how hot, cold, wet, or windy it might be!

Date:

Astronomy

May. 07, 2013 Rise Set
Actual Time 6:36 AM CDT 8:09 PM CDT
Civil Twilight 6:10 AM CDT 8:35 PM CDT
Nautical Twilight 5:39 AM CDT 9:06 PM CDT
Astronomical Twilight 5:07 AM CDT 9:39 PM CDT
Moon 5:03 AM CDT (5/7) 6:16 PM CDT (5/7)
Length of Visible Light 14h 24m
Length of Day
13h 32m
Waning Crescent, 5% of the Moon is Illuminated
May 7
Waning Crescent
May 9
New
May 17
First Quarter
May 24
Full
May 31
Last Quarter

Hourly Weather History & Observations

Time (CDT) Temp. Dew Point Humidity Pressure Visibility Wind Dir Wind Speed Gust Speed Precip Events Conditions
12:15 AM 54.5 °F 51.8 °F 91% 30.03 in 10.0 mi Calm Calm - N/A   Clear
12:35 AM 53.8 °F 51.6 °F 92% 30.03 in 10.0 mi Calm Calm - N/A   Clear
12:55 AM 53.6 °F 51.6 °F 93% 30.03 in 10.0 mi Calm Calm - N/A   Clear
1:15 AM 54.0 °F 51.6 °F 92% 30.04 in 10.0 mi Calm Calm - N/A   Clear
1:35 AM 52.9 °F 50.9 °F 93% 30.04 in 10.0 mi Calm Calm - N/A   Clear
1:55 AM 50.9 °F 48.7 °F 92% 30.04 in 10.0 mi Calm Calm - N/A   Clear
2:15 AM 51.8 °F 49.1 °F 90% 30.04 in 10.0 mi Calm Calm - N/A   Clear
2:35 AM 51.8 °F 49.5 °F 92% 30.04 in 10.0 mi Calm Calm - N/A   Clear
2:55 AM 51.3 °F 49.3 °F 93% 30.04 in 10.0 mi Calm Calm - N/A   Clear
3:15 AM 50.9 °F 49.1 °F 94% 30.04 in 10.0 mi Calm Calm - N/A   Clear
3:35 AM 50.7 °F 48.9 °F 94% 30.04 in 10.0 mi Calm Calm - N/A   Clear
3:55 AM 50.0 °F 48.2 °F 94% 30.04 in 10.0 mi Calm Calm - N/A   Clear
4:15 AM 50.2 °F 48.4 °F 94% 30.04 in 10.0 mi Calm Calm - N/A   Clear
4:35 AM 49.8 °F 47.8 °F 93% 30.04 in 10.0 mi Calm Calm - N/A   Clear
4:55 AM 49.3 °F 47.5 °F 94% 30.05 in 10.0 mi Calm Calm - N/A   Clear
5:15 AM 49.1 °F 47.1 °F 93% 30.05 in 10.0 mi Calm Calm - N/A   Clear
5:35 AM 49.3 °F 47.1 °F 92% 30.05 in 10.0 mi Calm Calm - N/A   Clear
5:55 AM 48.2 °F 46.0 °F 92% 30.05 in 10.0 mi Calm Calm - N/A   Clear
6:15 AM 48.6 °F 46.0 °F 91% 30.06 in 10.0 mi Calm Calm - N/A   Clear
6:35 AM 48.6 °F 46.4 °F 92% 30.07 in 10.0 mi Calm Calm - N/A   Clear
6:55 AM 48.2 °F 46.2 °F 93% 30.07 in 10.0 mi Calm Calm - N/A   Clear
7:15 AM 48.7 °F 46.8 °F 93% 30.08 in 10.0 mi Calm Calm - N/A   Clear
7:35 AM 51.6 °F 48.9 °F 90% 30.07 in 10.0 mi Calm Calm - N/A   Clear
7:55 AM 53.4 °F 50.5 °F 90% 30.08 in 10.0 mi Calm Calm - N/A   Clear
8:15 AM 56.5 °F 51.8 °F 84% 30.08 in 10.0 mi Calm Calm - N/A   Clear
8:35 AM 59.7 °F 52.2 °F 76% 30.08 in 10.0 mi Calm Calm - N/A   Clear
8:55 AM 63.0 °F 52.9 °F 70% 30.09 in 10.0 mi Calm Calm - N/A   Clear
9:15 AM 66.0 °F 52.5 °F 62% 30.09 in 10.0 mi NW 3.5 mph - N/A   Clear
9:35 AM 68.9 °F 53.4 °F 58% 30.09 in 10.0 mi Calm Calm - N/A   Clear
9:55 AM 70.5 °F 51.1 °F 50% 30.09 in 10.0 mi Calm Calm - N/A   Clear
10:15 AM 71.8 °F 50.9 °F 48% 30.09 in 10.0 mi Calm Calm - N/A   Clear
10:55 AM 74.7 °F 51.3 °F 44% 30.09 in 10.0 mi SSE 4.6 mph - N/A   Clear
11:15 AM 75.7 °F 50.4 °F 41% 30.09 in 10.0 mi Calm Calm - N/A   Clear
11:35 AM 76.1 °F 50.2 °F 40% 30.09 in 10.0 mi South 5.8 mph - N/A   Clear
11:55 AM 77.5 °F 50.9 °F 39% 30.08 in 10.0 mi SSE 5.8 mph - N/A   Clear
12:15 PM 77.5 °F 49.5 °F 37% 30.07 in 10.0 mi South 4.6 mph - N/A   Clear
12:35 PM 78.8 °F 50.2 °F 37% 30.06 in 10.0 mi SE 6.9 mph - N/A   Clear
12:55 PM 78.8 °F 47.1 °F 33% 30.05 in 10.0 mi Calm Calm - N/A   Clear
1:15 PM 79.7 °F 49.6 °F 35% 30.04 in 10.0 mi South 4.6 mph - N/A   Clear
1:35 PM 79.7 °F 48.7 °F 34% 30.03 in - East 3.5 mph - N/A   Clear
1:55 PM 81.3 °F 49.6 °F 33% 30.03 in - South 9.2 mph - N/A   Clear
2:15 PM 81.9 °F 49.5 °F 32% 30.03 in 10.0 mi South 5.8 mph - N/A   Clear
2:35 PM 82.2 °F 48.9 °F 31% 30.02 in 10.0 mi SSW 8.1 mph - N/A   Clear
2:55 PM 83.3 °F 49.6 °F 31% 30.01 in - ESE 5.8 mph - N/A   Clear
3:15 PM 82.4 °F 49.5 °F 32% 30.00 in - South 6.9 mph - N/A   Clear
3:35 PM 83.8 °F 48.7 °F 29% 29.99 in 10.0 mi SSE 5.8 mph - N/A   Clear
3:55 PM 83.8 °F 48.7 °F 29% 29.98 in 10.0 mi Calm Calm - N/A   Clear
4:15 PM 84.6 °F 47.3 °F 27% 29.98 in 10.0 mi SSE 5.8 mph - N/A   Clear
4:35 PM 84.7 °F 46.8 °F 27% 29.97 in 10.0 mi SSE 5.8 mph - N/A   Clear
4:55 PM 84.6 °F 45.9 °F 26% 29.96 in 10.0 mi SE 3.5 mph - N/A   Clear
5:15 PM 84.9 °F 46.9 °F 27% 29.96 in 10.0 mi Calm Calm - N/A   Clear
5:35 PM 84.9 °F 47.8 °F 27% 29.96 in 10.0 mi SE 6.9 mph - N/A   Clear
5:55 PM 85.1 °F 47.3 °F 27% 29.96 in 10.0 mi SSE 5.8 mph - N/A   Clear
6:15 PM 84.2 °F 46.6 °F 27% 29.95 in 10.0 mi East 3.5 mph - N/A   Clear
6:35 PM 84.2 °F 46.6 °F 27% 29.95 in 10.0 mi SE 3.5 mph - N/A   Clear
6:55 PM 83.5 °F 47.5 °F 28% 29.94 in 10.0 mi ESE 4.6 mph - N/A   Clear
7:15 PM 82.4 °F 46.6 °F 28% 29.94 in - East 3.5 mph - N/A   Clear
7:35 PM 80.8 °F 48.4 °F 32% 29.94 in - Calm Calm - N/A   Clear
7:55 PM 79.0 °F 48.4 °F 34% 29.94 in 10.0 mi Calm Calm - N/A   Clear
8:15 PM 76.3 °F 50.7 °F 41% 29.95 in 10.0 mi SE 3.5 mph - N/A   Clear
8:35 PM 72.3 °F 53.2 °F 51% 29.96 in 10.0 mi Calm Calm - N/A   Clear
8:55 PM 73.9 °F 52.2 °F 46% 29.96 in 10.0 mi ESE 4.6 mph - N/A   Clear
9:15 PM 73.0 °F 52.2 °F 48% 29.97 in 10.0 mi SE 4.6 mph - N/A   Clear
9:35 PM 72.1 °F 52.9 °F 51% 29.98 in 10.0 mi SE 8.1 mph - N/A   Clear
9:55 PM 71.6 °F 53.2 °F 52% 29.98 in 10.0 mi SE 5.8 mph - N/A   Clear
10:15 PM 70.7 °F 53.6 °F 55% 29.98 in 10.0 mi ESE 5.8 mph - N/A   Clear
10:35 PM 70.3 °F 53.1 °F 54% 29.98 in 10.0 mi ESE 6.9 mph - N/A   Clear
10:55 PM 69.6 °F 53.1 °F 56% 29.98 in 10.0 mi SSE 4.6 mph - N/A   Clear
11:15 PM 68.4 °F 53.8 °F 60% 29.99 in 10.0 mi SE 4.6 mph - N/A   Clear
11:35 PM 67.1 °F 54.0 °F 63% 29.99 in 10.0 mi ESE 3.5 mph - N/A   Clear
11:55 PM 66.4 °F 54.0 °F 64% 29.99 in 10.0 mi ESE 3.5 mph - N/A   Clear